Time,TemperatureF,DewpointF,PressureIn,WindDirection,WindDirectionDegrees,WindSpeedMPH,WindSpeedGustMPH,Humidity,HourlyPrecipIn,Conditions,Clouds,dailyrainin,SoftwareType,DateUTC
2013-02-28 00:00:00,27.8,20.9,29.99,North,360,6.9,6.9,75,0.00,SCT,,0.00,WeatherDisplay:10.37,2013-02-28 06:00:00,
2013-02-28 00:05:00,27.9,21.0,29.99,North,5,6.9,6.9,75,0.00,SCT,,0.00,WeatherDisplay:10.37,2013-02-28 06:05:00,
2013-02-28 00:10:00,27.9,21.0,29.99,NNW,332,9.2,9.2,75,0.00,SCT,,0.00,WeatherDisplay:10.37,2013-02-28 06:10:00,
2013-02-28 00:15:00,27.9,20.7,29.99,NNE,21,4.6,4.6,74,0.00,SCT,,0.00,WeatherDisplay:10.37,2013-02-28 06:15:00,
2013-02-28 00:20:00,28.1,20.9,29.99,NNW,347,8.1,8.1,74,0.00,SCT,,0.00,WeatherDisplay:10.37,2013-02-28 06:20:00,
2013-02-28 00:25:00,27.9,20.7,29.99,NNW,343,6.0,6.0,74,0.00,SCT,,0.00,WeatherDisplay:10.37,2013-02-28 06:25:00,
2013-02-28 00:30:00,27.9,20.7,29.99,NNW,328,6.9,6.9,74,0.00,SCT,,0.00,WeatherDisplay:10.37,2013-02-28 06:30:00,
2013-02-28 00:35:00,27.9,20.7,29.99,North,5,9.2,9.2,74,0.00,SCT,,0.00,WeatherDisplay:10.37,2013-02-28 06:35:00,
2013-02-28 00:40:00,28.1,20.6,29.99,NW,323,11.5,11.5,73,0.00,SCT,,0.00,WeatherDisplay:10.37,2013-02-28 06:40:00,
2013-02-28 00:45:00,28.2,20.7,29.99,NNW,327,10.4,10.4,73,0.00,SCT,,0.00,WeatherDisplay:10.37,2013-02-28 06:45:00,
2013-02-28 00:50:00,28.4,20.8,29.99,NW,324,7.0,7.0,73,0.00,SCT,,0.00,WeatherDisplay:10.37,2013-02-28 06:50:00,
2013-02-28 00:55:00,28.5,20.9,29.99,NNW,336,11.5,11.5,73,0.00,SCT,,0.00,WeatherDisplay:10.37,2013-02-28 06:55:00,
2013-02-28 01:00:00,28.7,20.8,30.00,NNW,348,10.4,10.4,72,0.00,BKN,,0.00,WeatherDisplay:10.37,2013-02-28 07:00:00,
2013-02-28 01:05:00,28.7,20.8,30.00,NNW,342,9.2,9.2,72,0.00,BKN,,0.00,WeatherDisplay:10.37,2013-02-28 07:05:00,
2013-02-28 01:10:00,28.8,20.9,30.00,NNW,347,11.5,11.5,72,0.00,BKN,,0.00,WeatherDisplay:10.37,2013-02-28 07:10:00,
2013-02-28 01:15:00,28.8,20.9,30.00,North,360,5.8,5.8,72,0.00,BKN,,0.00,WeatherDisplay:10.37,2013-02-28 07:15:00,
2013-02-28 01:20:00,28.8,20.9,30.00,NNE,28,7.0,7.0,72,0.00,BKN,,0.00,WeatherDisplay:10.37,2013-02-28 07:20:00,
2013-02-28 01:25:00,28.8,20.9,30.00,NW,323,10.4,10.4,72,0.00,BKN,,0.00,WeatherDisplay:10.37,2013-02-28 07:25:00,
2013-02-28 01:30:00,28.8,20.9,30.00,North,355,6.9,6.9,72,0.00,OVC,,0.00,WeatherDisplay:10.37,2013-02-28 07:30:00,
2013-02-28 01:35:00,28.8,20.6,30.00,NNW,341,9.2,9.2,71,0.00,OVC,,0.00,WeatherDisplay:10.37,2013-02-28 07:35:00,
2013-02-28 01:40:00,28.8,20.6,30.00,North,350,6.9,6.9,71,0.00,OVC,,0.00,WeatherDisplay:10.37,2013-02-28 07:40:00,
2013-02-28 01:45:00,28.8,20.9,30.01,WNW,303,6.0,6.0,72,0.00,OVC,,0.00,WeatherDisplay:10.37,2013-02-28 07:45:00,
2013-02-28 01:50:00,28.7,20.8,30.01,NW,315,6.9,6.9,72,0.00,OVC,,0.00,WeatherDisplay:10.37,2013-02-28 07:50:00,
2013-02-28 01:55:00,28.7,20.8,30.01,North,355,5.0,5.0,72,0.00,OVC,,0.00,WeatherDisplay:10.37,2013-02-28 07:55:00,
2013-02-28 02:00:00,28.5,20.6,30.01,NNW,333,9.2,9.2,72,0.00,OVC,,0.00,WeatherDisplay:10.37,2013-02-28 08:00:00,
2013-02-28 02:05:00,28.5,20.6,30.01,NNW,331,4.6,4.6,72,0.00,OVC,,0.00,WeatherDisplay:10.37,2013-02-28 08:05:00,
2013-02-28 02:10:00,28.5,20.6,30.01,NNW,348,6.9,6.9,72,0.00,OVC,,0.00,WeatherDisplay:10.37,2013-02-28 08:10:00,
2013-02-28 02:15:00,28.5,20.6,30.01,North,360,8.1,8.1,72,0.00,OVC,,0.00,WeatherDisplay:10.37,2013-02-28 08:15:00,
2013-02-28 02:20:00,28.5,20.9,30.01,North,360,4.6,4.6,73,0.00,OVC,,0.00,WeatherDisplay:10.37,2013-02-28 08:20:00,
2013-02-28 02:25:00,28.5,20.6,30.01,North,360,6.9,6.9,72,0.00,OVC,,0.00,WeatherDisplay:10.37,2013-02-28 08:25:00,
2013-02-28 02:30:00,28.5,20.6,30.01,NW,319,5.0,5.0,72,0.00,OVC,,0.00,WeatherDisplay:10.37,2013-02-28 08:30:00,
2013-02-28 02:35:00,28.5,20.6,30.01,NW,319,6.9,6.9,72,0.00,OVC,,0.00,WeatherDisplay:10.37,2013-02-28 08:35:00,
2013-02-28 02:40:00,28.7,20.8,30.01,NNE,19,6.9,6.9,72,0.00,OVC,,0.00,WeatherDisplay:10.37,2013-02-28 08:40:00,
2013-02-28 02:45:00,28.8,20.9,30.01,North,355,5.8,5.8,72,0.00,OVC,,0.00,WeatherDisplay:10.37,2013-02-28 08:45:00,
2013-02-28 02:50:00,28.8,20.6,30.02,NNE,20,10.0,10.0,71,0.00,OVC,,0.00,WeatherDisplay:10.37,2013-02-28 08:50:00,
2013-02-28 02:55:00,29.0,20.8,30.02,North,355,8.1,8.1,71,0.00,OVC,,0.00,WeatherDisplay:10.37,2013-02-28 08:55:00,
2013-02-28 03:00:00,29.0,20.8,30.01,NNW,339,6.9,6.9,71,0.00,OVC,,0.00,WeatherDisplay:10.37,2013-02-28 09:00:00,
2013-02-28 03:05:00,29.0,20.8,30.01,NNW,341,3.5,3.5,71,0.00,OVC,,0.00,WeatherDisplay:10.37,2013-02-28 09:05:00,
2013-02-28 03:10:00,28.8,20.6,30.01,North,5,5.8,5.8,71,0.00,OVC,,0.00,WeatherDisplay:10.37,2013-02-28 09:10:00,
2013-02-28 03:15:00,29.0,20.8,30.01,NNE,16,6.0,6.0,71,0.00,OVC,,0.00,WeatherDisplay:10.37,2013-02-28 09:15:00,
2013-02-28 03:20:00,29.0,20.8,30.01,NNW,348,7.0,7.0,71,0.00,OVC,,0.00,WeatherDisplay:10.37,2013-02-28 09:20:00,
2013-02-28 03:25:00,29.1,20.5,30.01,North,355,5.8,5.8,70,0.00,OVC,,0.00,WeatherDisplay:10.37,2013-02-28 09:25:00,
2013-02-28 03:30:00,29.1,20.5,30.02,North,355,6.9,6.9,70,0.00,OVC,,0.00,WeatherDisplay:10.37,2013-02-28 09:30:00,
2013-02-28 03:35:00,29.3,20.7,30.02,North,5,9.2,9.2,70,0.00,OVC,,0.00,WeatherDisplay:10.37,2013-02-28 09:35:00,
2013-02-28 03:40:00,29.3,20.7,30.02,North,349,5.0,5.0,70,0.00,OVC,,0.00,WeatherDisplay:10.37,2013-02-28 09:40:00,
2013-02-28 03:45:00,29.3,20.7,30.02,North,355,5.0,5.0,70,0.00,OVC,,0.00,WeatherDisplay:10.37,2013-02-28 09:45:00,
2013-02-28 03:50:00,29.3,20.7,30.02,NW,324,4.6,4.6,70,0.00,OVC,,0.00,WeatherDisplay:10.37,2013-02-28 09:50:00,
2013-02-28 03:55:00,29.3,20.7,30.02,North,360,6.9,6.9,70,0.00,OVC,,0.00,WeatherDisplay:10.37,2013-02-28 09:55:00,
2013-02-28 04:00:00,29.3,20.7,30.02,North,349,6.9,6.9,70,0.00,OVC,,0.00,WeatherDisplay:10.37,2013-02-28 10:00:00,
2013-02-28 04:05:00,29.3,20.7,30.02,NNE,12,5.8,5.8,70,0.00,OVC,,0.00,WeatherDisplay:10.37,2013-02-28 10:05:00,
2013-02-28 04:10:00,29.3,20.7,30.02,NNW,348,5.8,5.8,70,0.00,OVC,,0.00,WeatherDisplay:10.37,2013-02-28 10:10:00,
2013-02-28 04:15:00,29.3,20.7,30.03,NW,322,5.8,5.8,70,0.00,OVC,,0.00,WeatherDisplay:10.37,2013-02-28 10:15:00,
2013-02-28 04:20:00,29.3,20.7,30.03,North,5,11.0,11.0,70,0.00,OVC,,0.00,WeatherDisplay:10.37,2013-02-28 10:20:00,
2013-02-28 04:25:00,29.4,20.5,30.03,NNE,13,11.5,11.5,69,0.00,OVC,,0.00,WeatherDisplay:10.37,2013-02-28 10:25:00,
2013-02-28 04:30:00,29.4,20.5,30.04,NNW,335,6.9,6.9,69,0.00,OVC,,0.00,WeatherDisplay:10.37,2013-02-28 10:30:00,
2013-02-28 04:35:00,29.4,20.5,30.04,NNW,338,9.2,9.2,69,0.00,OVC,,0.00,WeatherDisplay:10.37,2013-02-28 10:35:00,
2013-02-28 04:40:00,29.4,20.5,30.04,NNW,341,11.5,11.5,69,0.00,OVC,,0.00,WeatherDisplay:10.37,2013-02-28 10:40:00,
2013-02-28 04:45:00,29.4,20.5,30.04,NNW,336,12.0,12.0,69,0.00,OVC,,0.00,WeatherDisplay:10.37,2013-02-28 10:45:00,
2013-02-28 04:50:00,29.4,20.5,30.04,NNE,26,7.0,7.0,69,0.00,OVC,,0.00,WeatherDisplay:10.37,2013-02-28 10:50:00,
2013-02-28 04:55:00,29.4,20.5,30.04,NNE,32,6.9,6.9,69,0.00,OVC,,0.00,WeatherDisplay:10.37,2013-02-28 10:55:00,
2013-02-28 05:00:00,29.4,20.5,30.04,NNE,14,9.2,9.2,69,0.00,OVC,,0.00,WeatherDisplay:10.37,2013-02-28 11:00:00,
2013-02-28 05:05:00,29.4,20.5,30.04,NNW,348,10.4,10.4,69,0.00,OVC,,0.00,WeatherDisplay:10.37,2013-02-28 11:05:00,
2013-02-28 05:10:00,29.4,20.5,30.04,North,360,9.2,9.2,69,0.00,OVC,,0.00,WeatherDisplay:10.37,2013-02-28 11:10:00,
2013-02-28 05:15:00,29.4,20.5,30.05,NW,325,8.0,8.0,69,0.00,OVC,,0.00,WeatherDisplay:10.37,2013-02-28 11:15:00,
2013-02-28 05:20:00,29.4,20.5,30.05,NNW,344,10.0,10.0,69,0.00,OVC,,0.00,WeatherDisplay:10.37,2013-02-28 11:20:00,
2013-02-28 05:25:00,29.4,20.5,30.05,NNE,32,6.0,6.0,69,0.00,OVC,,0.00,WeatherDisplay:10.37,2013-02-28 11:25:00,
2013-02-28 05:30:00,29.4,20.1,30.05,NNE,14,11.5,11.5,68,0.00,OVC,,0.00,WeatherDisplay:10.37,2013-02-28 11:30:00,
2013-02-28 05:35:00,29.3,20.4,30.05,NNW,339,4.0,4.0,69,0.00,OVC,,0.00,WeatherDisplay:10.37,2013-02-28 11:35:00,
2013-02-28 05:40:00,29.3,20.4,30.05,NNE,17,9.2,9.2,69,0.00,OVC,,0.00,WeatherDisplay:10.37,2013-02-28 11:40:00,
2013-02-28 05:45:00,29.3,21.1,30.05,NNW,345,6.0,6.0,71,0.00,OVC,,0.00,WeatherDisplay:10.37,2013-02-28 11:45:00,
2013-02-28 05:50:00,29.3,20.4,30.05,North,11,5.0,5.0,69,0.00,OVC,,0.00,WeatherDisplay:10.37,2013-02-28 11:50:00,
2013-02-28 05:55:00,29.1,20.2,30.05,NNE,20,9.0,9.0,69,0.00,OVC,,0.00,WeatherDisplay:10.37,2013-02-28 11:55:00,
2013-02-28 06:00:00,29.1,20.2,30.05,NNE,15,11.0,11.0,69,0.00,OVC,,0.00,WeatherDisplay:10.37,2013-02-28 12:00:00,
2013-02-28 06:05:00,29.3,20.4,30.05,NNE,17,8.1,8.1,69,0.00,OVC,,0.00,WeatherDisplay:10.37,2013-02-28 12:05:00,
2013-02-28 06:10:00,29.3,20.4,30.05,NNE,29,12.7,12.7,69,0.00,OVC,,0.00,WeatherDisplay:10.37,2013-02-28 12:10:00,
2013-02-28 06:15:00,29.1,20.2,30.06,North,5,6.9,6.9,69,0.00,OVC,,0.00,WeatherDisplay:10.37,2013-02-28 12:15:00,
2013-02-28 06:20:00,29.1,20.2,30.06,NNE,18,12.7,12.7,69,0.00,OVC,,0.00,WeatherDisplay:10.37,2013-02-28 12:20:00,
2013-02-28 06:25:00,29.1,20.2,30.06,North,5,12.7,12.7,69,0.00,OVC,,0.00,WeatherDisplay:10.37,2013-02-28 12:25:00,
2013-02-28 06:30:00,29.1,19.8,30.06,NNE,19,5.8,5.8,68,0.00,OVC,,0.00,WeatherDisplay:10.37,2013-02-28 12:30:00,
2013-02-28 06:35:00,29.1,19.5,30.06,North,350,15.0,15.0,67,0.00,OVC,,0.00,WeatherDisplay:10.37,2013-02-28 12:35:00,
2013-02-28 06:40:00,29.0,19.4,30.06,NNE,29,12.0,12.0,67,0.00,OVC,,0.00,WeatherDisplay:10.37,2013-02-28 12:40:00,
2013-02-28 06:45:00,29.0,19.4,30.07,NNW,348,17.3,17.3,67,0.00,OVC,,0.00,WeatherDisplay:10.37,2013-02-28 12:45:00,
2013-02-28 06:50:00,28.8,19.6,30.07,NNE,23,13.8,13.8,68,0.00,OVC,,0.00,WeatherDisplay:10.37,2013-02-28 12:50:00,
2013-02-28 06:55:00,28.8,19.6,30.07,NNE,27,5.8,5.8,68,0.00,OVC,,0.00,WeatherDisplay:10.37,2013-02-28 12:55:00,
2013-02-28 07:00:00,28.8,19.2,30.07,NNW,333,12.7,12.7,67,0.00,OVC,,0.00,WeatherDisplay:10.37,2013-02-28 13:00:00,
2013-02-28 07:05:00,28.7,18.8,30.07,NNW,344,11.5,11.5,66,0.00,OVC,,0.00,WeatherDisplay:10.37,2013-02-28 13:05:00,
2013-02-28 07:10:00,28.7,18.8,30.07,North,9,16.1,16.1,66,0.00,OVC,,0.00,WeatherDisplay:10.37,2013-02-28 13:10:00,
2013-02-28 07:15:00,28.7,18.8,30.07,North,355,11.5,11.5,66,0.00,OVC,,0.00,WeatherDisplay:10.37,2013-02-28 13:15:00,
2013-02-28 07:20:00,28.5,18.6,30.07,NNE,17,10.0,10.0,66,0.00,OVC,,0.00,WeatherDisplay:10.37,2013-02-28 13:20:00,
2013-02-28 07:25:00,28.5,18.2,30.07,NNE,30,18.4,18.4,65,0.00,OVC,,0.00,WeatherDisplay:10.37,2013-02-28 13:25:00,
2013-02-28 07:30:00,28.5,18.2,30.07,North,9,17.3,17.3,65,0.00,OVC,,0.00,WeatherDisplay:10.37,2013-02-28 13:30:00,
2013-02-28 07:35:00,28.4,18.5,30.07,NNE,13,12.7,12.7,66,0.00,OVC,,0.00,WeatherDisplay:10.37,2013-02-28 13:35:00,
2013-02-28 07:40:00,28.4,18.5,30.07,NNE,19,12.7,12.7,66,0.00,OVC,,0.00,WeatherDisplay:10.37,2013-02-28 13:40:00,
2013-02-28 07:45:00,28.4,18.5,30.08,North,5,15.0,15.0,66,0.00,OVC,,0.00,WeatherDisplay:10.37,2013-02-28 13:45:00,
2013-02-28 07:50:00,28.2,18.3,30.08,North,5,13.8,13.8,66,0.00,OVC,,0.00,WeatherDisplay:10.37,2013-02-28 13:50:00,
2013-02-28 07:55:00,28.2,18.6,30.08,NNE,23,17.3,17.3,67,0.00,OVC,,0.00,WeatherDisplay:10.37,2013-02-28 13:55:00,
2013-02-28 08:00:00,28.2,18.6,30.08,NE,38,18.4,18.4,67,0.00,OVC,,0.00,WeatherDisplay:10.37,2013-02-28 14:00:00,
2013-02-28 08:05:00,28.1,18.5,30.08,NNE,32,11.5,11.5,67,0.00,OVC,,0.00,WeatherDisplay:10.37,2013-02-28 14:05:00,
2013-02-28 08:10:00,28.1,18.5,30.08,NNE,25,11.5,11.5,67,0.00,OVC,,0.00,WeatherDisplay:10.37,2013-02-28 14:10:00,
2013-02-28 08:15:00,28.1,18.5,30.08,North,355,4.6,4.6,67,0.00,OVC,,0.00,WeatherDisplay:10.37,2013-02-28 14:15:00,
2013-02-28 08:20:00,28.1,18.9,30.08,NNE,18,10.0,10.0,68,0.00,OVC,,0.00,WeatherDisplay:10.37,2013-02-28 14:20:00,
2013-02-28 08:25:00,28.1,18.5,30.08,North,355,12.7,12.7,67,0.00,OVC,,0.00,WeatherDisplay:10.37,2013-02-28 14:25:00,
2013-02-28 08:30:00,27.9,18.7,30.09,North,11,10.4,10.4,68,0.00,OVC,,0.00,WeatherDisplay:10.37,2013-02-28 14:30:00,
2013-02-28 08:35:00,27.9,18.7,30.09,NE,39,15.0,15.0,68,0.00,OVC,,0.00,WeatherDisplay:10.37,2013-02-28 14:35:00,
2013-02-28 08:40:00,27.9,18.7,30.09,North,5,11.5,11.5,68,0.00,OVC,,0.00,WeatherDisplay:10.37,2013-02-28 14:40:00,
2013-02-28 08:45:00,27.9,18.4,30.09,NNW,339,11.5,11.5,67,0.00,OVC,,0.00,WeatherDisplay:10.37,2013-02-28 14:45:00,
2013-02-28 08:50:00,27.8,18.3,30.09,North,10,11.5,11.5,67,0.00,OVC,,0.00,WeatherDisplay:10.37,2013-02-28 14:50:00,
2013-02-28 08:55:00,27.6,18.1,30.09,ENE,65,12.7,12.7,67,0.00,OVC,,0.00,WeatherDisplay:10.37,2013-02-28 14:55:00,
2013-02-28 09:00:00,27.6,18.1,30.10,NNE,31,15.0,15.0,67,0.00,OVC,,0.00,WeatherDisplay:10.37,2013-02-28 15:00:00,
2013-02-28 09:05:00,27.6,18.1,30.10,NE,38,11.5,11.5,67,0.00,OVC,,0.00,WeatherDisplay:10.37,2013-02-28 15:05:00,
2013-02-28 09:10:00,27.6,18.1,30.10,NE,35,11.5,11.5,67,0.00,OVC,,0.00,WeatherDisplay:10.37,2013-02-28 15:10:00,
2013-02-28 09:15:00,27.8,18.3,30.10,North,5,10.4,10.4,67,0.00,OVC,,0.00,WeatherDisplay:10.37,2013-02-28 15:15:00,
2013-02-28 09:20:00,27.8,18.3,30.10,North,5,10.4,10.4,67,0.00,OVC,,0.00,WeatherDisplay:10.37,2013-02-28 15:20:00,
2013-02-28 09:25:00,27.8,18.3,30.10,NNW,333,11.5,11.5,67,0.00,OVC,,0.00,WeatherDisplay:10.37,2013-02-28 15:25:00,
2013-02-28 09:30:00,27.8,18.3,30.10,NNE,16,11.5,11.5,67,0.00,OVC,,0.00,WeatherDisplay:10.37,2013-02-28 15:30:00,
2013-02-28 09:35:00,27.9,18.4,30.10,North,355,9.2,9.2,67,0.00,OVC,,0.00,WeatherDisplay:10.37,2013-02-28 15:35:00,
2013-02-28 09:40:00,27.9,18.4,30.10,NE,41,11.5,11.5,67,0.00,OVC,,0.00,WeatherDisplay:10.37,2013-02-28 15:40:00,
2013-02-28 09:45:00,28.1,18.9,30.11,NNE,25,5.0,5.0,68,0.00,OVC,,0.00,WeatherDisplay:10.37,2013-02-28 15:45:00,
2013-02-28 09:50:00,28.4,18.8,30.11,NNE,19,7.0,7.0,67,0.00,OVC,,0.00,WeatherDisplay:10.37,2013-02-28 15:50:00,
2013-02-28 09:55:00,28.1,18.5,30.11,NNE,29,12.0,12.0,67,0.00,OVC,,0.00,WeatherDisplay:10.37,2013-02-28 15:55:00,
2013-02-28 10:00:00,28.1,18.5,30.11,North,11,11.5,11.5,67,0.00,OVC,,0.00,WeatherDisplay:10.37,2013-02-28 16:00:00,
2013-02-28 10:05:00,27.9,18.4,30.11,North,11,16.1,16.1,67,0.00,OVC,,0.00,WeatherDisplay:10.37,2013-02-28 16:05:00,
2013-02-28 10:10:00,27.9,18.4,30.11,NNE,15,13.8,13.8,67,0.00,OVC,,0.00,WeatherDisplay:10.37,2013-02-28 16:10:00,
2013-02-28 10:15:00,27.9,18.4,30.11,NNE,17,9.2,9.2,67,0.00,OVC,,0.00,WeatherDisplay:10.37,2013-02-28 16:15:00,
2013-02-28 10:20:00,27.9,18.4,30.11,North,360,11.0,11.0,67,0.00,OVC,,0.00,WeatherDisplay:10.37,2013-02-28 16:20:00,
2013-02-28 10:25:00,27.9,18.4,30.11,NNE,30,10.4,10.4,67,0.00,OVC,,0.00,WeatherDisplay:10.37,2013-02-28 16:25:00,
2013-02-28 10:30:00,27.9,18.4,30.11,ENE,67,9.2,9.2,67,0.00,OVC,,0.00,WeatherDisplay:10.37,2013-02-28 16:30:00,
2013-02-28 10:35:00,28.1,18.5,30.11,ENE,59,14.0,14.0,67,0.00,OVC,,0.00,WeatherDisplay:10.37,2013-02-28 16:35:00,
2013-02-28 10:40:00,27.8,18.3,30.11,NE,38,11.5,11.5,67,0.00,OVC,,0.00,WeatherDisplay:10.37,2013-02-28 16:40:00,
2013-02-28 10:45:00,27.9,18.7,30.12,NNE,19,9.0,9.0,68,0.00,OVC,,0.00,WeatherDisplay:10.37,2013-02-28 16:45:00,
2013-02-28 10:50:00,27.9,18.7,30.12,ENE,57,11.0,11.0,68,0.00,OVC,,0.00,WeatherDisplay:10.37,2013-02-28 16:50:00,
2013-02-28 10:55:00,27.8,18.9,30.12,NE,54,5.8,5.8,69,0.00,OVC,,0.00,WeatherDisplay:10.37,2013-02-28 16:55:00,
2013-02-28 11:00:00,27.9,19.0,30.12,NE,35,9.2,9.2,69,0.00,OVC,,0.00,WeatherDisplay:10.37,2013-02-28 17:00:00,
2013-02-28 11:05:00,27.9,18.7,30.12,NNE,32,10.4,10.4,68,0.00,OVC,,0.00,WeatherDisplay:10.37,2013-02-28 17:05:00,
2013-02-28 11:10:00,27.9,18.7,30.12,NNE,15,10.4,10.4,68,0.00,OVC,,0.00,WeatherDisplay:10.37,2013-02-28 17:10:00,
2013-02-28 11:15:00,27.8,18.6,30.12,NNE,21,11.5,11.5,68,0.00,OVC,,0.00,WeatherDisplay:10.37,2013-02-28 17:15:00,
2013-02-28 11:20:00,27.8,18.6,30.12,NNE,28,12.7,12.7,68,0.00,OVC,,0.00,WeatherDisplay:10.37,2013-02-28 17:20:00,
2013-02-28 11:25:00,27.6,18.4,30.12,NNE,32,12.7,12.7,68,0.00,OVC,,0.00,WeatherDisplay:10.37,2013-02-28 17:25:00,
2013-02-28 11:30:00,27.9,18.7,30.12,NNW,348,7.0,7.0,68,0.00,OVC,,0.00,WeatherDisplay:10.37,2013-02-28 17:30:00,
2013-02-28 11:35:00,27.9,18.4,30.12,ENE,58,16.1,16.1,67,0.00,OVC,,0.00,WeatherDisplay:10.37,2013-02-28 17:35:00,
2013-02-28 11:40:00,28.1,18.5,30.12,North,350,11.5,11.5,67,0.00,OVC,,0.00,WeatherDisplay:10.37,2013-02-28 17:40:00,
2013-02-28 11:45:00,28.2,18.6,30.12,North,5,8.1,8.1,67,0.00,OVC,,0.00,WeatherDisplay:10.37,2013-02-28 17:45:00,
2013-02-28 11:50:00,28.2,18.3,30.12,NNE,17,13.8,13.8,66,0.00,OVC,,0.00,WeatherDisplay:10.37,2013-02-28 17:50:00,
2013-02-28 11:55:00,28.2,18.6,30.12,North,360,6.9,6.9,67,0.00,OVC,,0.00,WeatherDisplay:10.37,2013-02-28 17:55:00,
2013-02-28 12:00:00,28.2,18.3,30.12,NNW,345,10.4,10.4,66,0.00,OVC,,0.00,WeatherDisplay:10.37,2013-02-28 18:00:00,
2013-02-28 12:05:00,28.2,18.6,30.12,North,5,12.7,12.7,67,0.00,OVC,,0.00,WeatherDisplay:10.37,2013-02-28 18:05:00,
2013-02-28 12:10:00,28.1,18.5,30.12,North,10,8.1,8.1,67,0.00,OVC,,0.00,WeatherDisplay:10.37,2013-02-28 18:10:00,
2013-02-28 12:15:00,28.2,19.0,30.12,NNW,342,10.0,10.0,68,0.00,OVC,,0.00,WeatherDisplay:10.37,2013-02-28 18:15:00,
2013-02-28 12:20:00,28.4,18.8,30.12,North,350,9.2,9.2,67,0.00,OVC,,0.00,WeatherDisplay:10.37,2013-02-28 18:20:00,
2013-02-28 12:25:00,28.4,18.8,30.12,North,360,11.5,11.5,67,0.00,OVC,,0.00,WeatherDisplay:10.37,2013-02-28 18:25:00,
2013-02-28 12:30:00,28.4,19.2,30.12,NNW,338,5.8,5.8,68,0.00,OVC,,0.00,WeatherDisplay:10.37,2013-02-28 18:30:00,
2013-02-28 12:35:00,28.5,18.9,30.12,North,360,10.4,10.4,67,0.00,OVC,,0.00,WeatherDisplay:10.37,2013-02-28 18:35:00,
2013-02-28 12:40:00,28.5,18.9,30.12,North,10,6.9,6.9,67,0.00,OVC,,0.00,WeatherDisplay:10.37,2013-02-28 18:40:00,
2013-02-28 12:45:00,28.5,18.9,30.12,NNE,27,13.8,13.8,67,0.00,OVC,,0.00,WeatherDisplay:10.37,2013-02-28 18:45:00,
2013-02-28 12:50:00,28.7,19.1,30.12,North,360,10.4,10.4,67,0.00,OVC,,0.00,WeatherDisplay:10.37,2013-02-28 18:50:00,
2013-02-28 12:55:00,28.7,19.1,30.12,NNE,31,6.9,6.9,67,0.00,OVC,,0.00,WeatherDisplay:10.37,2013-02-28 18:55:00,
2013-02-28 13:00:00,28.8,19.2,30.12,NNW,348,10.4,10.4,67,0.00,OVC,,0.00,WeatherDisplay:10.37,2013-02-28 19:00:00,
2013-02-28 13:05:00,28.8,19.2,30.12,North,355,10.4,10.4,67,0.00,OVC,,0.00,WeatherDisplay:10.37,2013-02-28 19:05:00,
2013-02-28 13:10:00,28.7,19.1,30.12,NNE,26,9.2,9.2,67,0.00,OVC,,0.00,WeatherDisplay:10.37,2013-02-28 19:10:00,
2013-02-28 13:15:00,28.7,19.1,30.11,NNE,26,11.5,11.5,67,0.00,OVC,,0.00,WeatherDisplay:10.37,2013-02-28 19:15:00,
2013-02-28 13:20:00,28.7,19.5,30.11,NNE,19,5.8,5.8,68,0.00,OVC,,0.00,WeatherDisplay:10.37,2013-02-28 19:20:00,
2013-02-28 13:25:00,28.7,19.5,30.11,NNE,13,11.5,11.5,68,0.00,OVC,,0.00,WeatherDisplay:10.37,2013-02-28 19:25:00,
2013-02-28 13:30:00,28.5,19.3,30.11,NNE,26,10.4,10.4,68,0.00,OVC,,0.00,WeatherDisplay:10.37,2013-02-28 19:30:00,
2013-02-28 13:35:00,28.7,19.5,30.11,NNE,30,12.7,12.7,68,0.00,OVC,,0.00,WeatherDisplay:10.37,2013-02-28 19:35:00,
2013-02-28 13:40:00,28.7,18.4,30.11,NNE,16,13.8,13.8,65,0.00,OVC,,0.00,WeatherDisplay:10.37,2013-02-28 19:40:00,
2013-02-28 13:45:00,28.7,19.5,30.11,North,5,9.2,9.2,68,0.00,OVC,,0.00,WeatherDisplay:10.37,2013-02-28 19:45:00,
2013-02-28 13:50:00,28.8,19.6,30.11,NW,323,5.0,5.0,68,0.00,OVC,,0.00,WeatherDisplay:10.37,2013-02-28 19:50:00,
2013-02-28 13:55:00,28.8,19.6,30.11,NE,49,9.2,9.2,68,0.00,OVC,,0.00,WeatherDisplay:10.37,2013-02-28 19:55:00,
2013-02-28 14:00:00,28.8,19.6,30.11,North,5,10.4,10.4,68,0.00,OVC,,0.00,WeatherDisplay:10.37,2013-02-28 20:00:00,
2013-02-28 14:05:00,28.7,19.8,30.11,North,360,6.9,6.9,69,0.00,OVC,,0.00,WeatherDisplay:10.37,2013-02-28 20:05:00,
2013-02-28 14:10:00,28.7,20.1,30.11,North,360,5.8,5.8,70,0.00,OVC,,0.00,WeatherDisplay:10.37,2013-02-28 20:10:00,
2013-02-28 14:15:00,28.7,19.8,30.11,North,5,13.8,13.8,69,0.00,OVC,,0.00,WeatherDisplay:10.37,2013-02-28 20:15:00,
2013-02-28 14:20:00,28.5,19.6,30.11,North,355,12.7,12.7,69,0.00,OVC,,0.00,WeatherDisplay:10.37,2013-02-28 20:20:00,
2013-02-28 14:25:00,28.5,19.6,30.11,North,355,12.7,12.7,69,0.00,OVC,,0.00,WeatherDisplay:10.37,2013-02-28 20:25:00,
2013-02-28 14:30:00,28.5,20.0,30.11,NNE,16,9.0,9.0,70,0.00,OVC,,0.00,WeatherDisplay:10.37,2013-02-28 20:30:00,
2013-02-28 14:35:00,28.4,19.9,30.11,North,9,12.7,12.7,70,0.00,OVC,,0.00,WeatherDisplay:10.37,2013-02-28 20:35:00,
2013-02-28 14:40:00,28.4,20.2,30.11,NNE,19,11.5,11.5,71,0.00,OVC,,0.00,WeatherDisplay:10.37,2013-02-28 20:40:00,
2013-02-28 14:45:00,28.2,20.0,30.12,North,5,6.9,6.9,71,0.00,OVC,,0.00,WeatherDisplay:10.37,2013-02-28 20:45:00,
2013-02-28 14:50:00,28.2,20.0,30.12,NNW,338,11.5,11.5,71,0.00,OVC,,0.00,WeatherDisplay:10.37,2013-02-28 20:50:00,
2013-02-28 14:55:00,28.2,20.0,30.12,NNW,344,9.0,9.0,71,0.00,OVC,,0.00,WeatherDisplay:10.37,2013-02-28 20:55:00,
2013-02-28 15:00:00,28.2,20.0,30.11,North,11,11.5,11.5,71,0.00,OVC,,0.00,WeatherDisplay:10.37,2013-02-28 21:00:00,
2013-02-28 15:05:00,28.4,20.2,30.11,North,10,10.0,10.0,71,0.00,OVC,,0.00,WeatherDisplay:10.37,2013-02-28 21:05:00,
2013-02-28 15:10:00,28.4,20.2,30.11,North,5,10.4,10.4,71,0.00,OVC,,0.00,WeatherDisplay:10.37,2013-02-28 21:10:00,
2013-02-28 15:15:00,28.2,19.7,30.12,NNE,29,12.7,12.7,70,0.00,OVC,,0.00,WeatherDisplay:10.37,2013-02-28 21:15:00,
2013-02-28 15:20:00,28.1,19.9,30.12,NNE,22,11.5,11.5,71,0.00,OVC,,0.00,WeatherDisplay:10.37,2013-02-28 21:20:00,
2013-02-28 15:25:00,28.1,19.9,30.12,NNW,332,3.5,3.5,71,0.00,OVC,,0.00,WeatherDisplay:10.37,2013-02-28 21:25:00,
2013-02-28 15:30:00,28.2,20.0,30.12,North,355,5.8,5.8,71,0.00,OVC,,0.00,WeatherDisplay:10.37,2013-02-28 21:30:00,
2013-02-28 15:35:00,28.4,19.9,30.12,NNE,25,5.8,5.8,70,0.00,OVC,,0.00,WeatherDisplay:10.37,2013-02-28 21:35:00,
2013-02-28 15:40:00,28.4,19.9,30.12,NNE,23,3.5,3.5,70,0.00,OVC,,0.00,WeatherDisplay:10.37,2013-02-28 21:40:00,
2013-02-28 15:45:00,28.4,19.9,30.13,North,350,10.4,10.4,70,0.00,OVC,,0.00,WeatherDisplay:10.37,2013-02-28 21:45:00,
2013-02-28 15:50:00,28.4,19.5,30.13,North,349,10.4,10.4,69,0.00,OVC,,0.00,WeatherDisplay:10.37,2013-02-28 21:50:00,
2013-02-28 15:55:00,28.4,19.2,30.13,North,5,14.0,14.0,68,0.00,OVC,,0.00,WeatherDisplay:10.37,2013-02-28 21:55:00,
2013-02-28 16:00:00,28.4,19.2,30.13,NNE,22,8.1,8.1,68,0.00,OVC,,0.00,WeatherDisplay:10.37,2013-02-28 22:00:00,
2013-02-28 16:05:00,28.4,18.8,30.13,NNE,30,12.0,12.0,67,0.00,OVC,,0.00,WeatherDisplay:10.37,2013-02-28 22:05:00,
2013-02-28 16:10:00,28.4,18.8,30.13,NNE,13,7.0,7.0,67,0.00,OVC,,0.00,WeatherDisplay:10.37,2013-02-28 22:10:00,
2013-02-28 16:15:00,28.4,18.8,30.13,North,5,11.5,11.5,67,0.00,OVC,,0.00,WeatherDisplay:10.37,2013-02-28 22:15:00,
2013-02-28 16:20:00,28.4,18.5,30.13,North,5,11.5,11.5,66,0.00,OVC,,0.00,WeatherDisplay:10.37,2013-02-28 22:20:00,
2013-02-28 16:25:00,28.4,18.1,30.13,NNE,15,11.5,11.5,65,0.00,OVC,,0.00,WeatherDisplay:10.37,2013-02-28 22:25:00,
2013-02-28 16:30:00,28.4,18.1,30.13,NNE,14,10.0,10.0,65,0.00,OVC,,0.00,WeatherDisplay:10.37,2013-02-28 22:30:00,
2013-02-28 16:35:00,28.4,18.1,30.13,NNW,329,9.2,9.2,65,0.00,OVC,,0.00,WeatherDisplay:10.37,2013-02-28 22:35:00,
2013-02-28 16:40:00,28.2,17.9,30.13,NNE,25,6.9,6.9,65,0.00,OVC,,0.00,WeatherDisplay:10.37,2013-02-28 22:40:00,
2013-02-28 16:45:00,28.2,17.9,30.13,NE,39,6.0,6.0,65,0.00,OVC,,0.00,WeatherDisplay:10.37,2013-02-28 22:45:00,
2013-02-28 16:50:00,28.1,17.8,30.13,NNE,24,15.0,15.0,65,0.00,OVC,,0.00,WeatherDisplay:10.37,2013-02-28 22:50:00,
2013-02-28 16:55:00,28.1,18.2,30.13,North,355,10.4,10.4,66,0.00,OVC,,0.00,WeatherDisplay:10.37,2013-02-28 22:55:00,
2013-02-28 17:00:00,27.9,17.6,30.13,NNE,31,14.0,14.0,65,0.00,OVC,,0.00,WeatherDisplay:10.37,2013-02-28 23:00:00,
2013-02-28 17:05:00,27.8,17.6,30.13,North,9,14.0,14.0,65,0.00,OVC,,0.00,WeatherDisplay:10.37,2013-02-28 23:05:00,
2013-02-28 17:10:00,27.8,17.6,30.13,NNE,32,11.5,11.5,65,0.00,OVC,,0.00,WeatherDisplay:10.37,2013-02-28 23:10:00,
2013-02-28 17:15:00,27.8,17.6,30.14,North,5,11.5,11.5,65,0.00,OVC,,0.00,WeatherDisplay:10.37,2013-02-28 23:15:00,
2013-02-28 17:20:00,27.8,17.6,30.14,NNE,20,10.4,10.4,65,0.00,OVC,,0.00,WeatherDisplay:10.37,2013-02-28 23:20:00,
2013-02-28 17:25:00,27.6,17.4,30.14,NNE,23,11.5,11.5,65,0.00,OVC,,0.00,WeatherDisplay:10.37,2013-02-28 23:25:00,
2013-02-28 17:30:00,27.6,17.4,30.14,North,11,12.7,12.7,65,0.00,OVC,,0.00,WeatherDisplay:10.37,2013-02-28 23:30:00,
2013-02-28 17:35:00,27.6,17.4,30.14,NE,39,6.9,6.9,65,0.00,OVC,,0.00,WeatherDisplay:10.37,2013-02-28 23:35:00,
2013-02-28 17:40:00,27.5,16.9,30.14,NNE,27,10.4,10.4,64,0.00,OVC,,0.00,WeatherDisplay:10.37,2013-02-28 23:40:00,
2013-02-28 17:45:00,27.5,16.9,30.15,North,355,11.5,11.5,64,0.00,OVC,,0.00,WeatherDisplay:10.37,2013-02-28 23:45:00,
2013-02-28 17:50:00,27.3,16.7,30.15,NNW,341,11.5,11.5,64,0.00,OVC,,0.00,WeatherDisplay:10.37,2013-02-28 23:50:00,
2013-02-28 17:55:00,27.3,16.7,30.15,North,351,10.4,10.4,64,0.00,OVC,,0.00,WeatherDisplay:10.37,2013-02-28 23:55:00,
2013-02-28 18:00:00,27.2,16.6,30.15,NNW,347,6.9,6.9,64,0.00,OVC,,0.00,WeatherDisplay:10.37,2013-03-01 00:00:00,
2013-02-28 18:05:00,27.2,16.6,30.15,NNE,24,10.4,10.4,64,0.00,OVC,,0.00,WeatherDisplay:10.37,2013-03-01 00:05:00,
2013-02-28 18:10:00,27.2,16.6,30.15,North,11,6.9,6.9,64,0.00,OVC,,0.00,WeatherDisplay:10.37,2013-03-01 00:10:00,
2013-02-28 18:15:00,27.2,16.6,30.15,NNE,17,6.9,6.9,64,0.00,OVC,,0.00,WeatherDisplay:10.37,2013-03-01 00:15:00,
2013-02-28 18:20:00,27.2,16.3,30.15,NNE,27,11.5,11.5,63,0.00,OVC,,0.00,WeatherDisplay:10.37,2013-03-01 00:20:00,
2013-02-28 18:25:00,27.2,16.3,30.15,North,10,11.5,11.5,63,0.00,OVC,,0.00,WeatherDisplay:10.37,2013-03-01 00:25:00,
2013-02-28 18:30:00,27.2,16.3,30.15,NNE,13,5.0,5.0,63,0.00,OVC,,0.00,WeatherDisplay:10.37,2013-03-01 00:30:00,
2013-02-28 18:35:00,27.2,16.3,30.16,NNE,12,3.5,3.5,63,0.00,OVC,,0.00,WeatherDisplay:10.37,2013-03-01 00:35:00,
2013-02-28 18:40:00,27.2,16.6,30.16,NNE,24,5.8,5.8,64,0.00,OVC,,0.00,WeatherDisplay:10.37,2013-03-01 00:40:00,
2013-02-28 18:45:00,27.2,16.6,30.16,North,355,6.9,6.9,64,0.00,OVC,,0.00,WeatherDisplay:10.37,2013-03-01 00:45:00,
2013-02-28 18:50:00,27.0,16.4,30.16,NNE,17,5.8,5.8,64,0.00,OVC,,0.00,WeatherDisplay:10.37,2013-03-01 00:50:00,
2013-02-28 18:55:00,27.0,16.4,30.16,NNE,17,12.7,12.7,64,0.00,OVC,,0.00,WeatherDisplay:10.37,2013-03-01 00:55:00,
2013-02-28 19:00:00,27.0,16.4,30.16,North,360,6.9,6.9,64,0.00,OVC,,0.00,WeatherDisplay:10.37,2013-03-01 01:00:00,
2013-02-28 19:05:00,27.0,16.4,30.16,NNW,337,3.5,3.5,64,0.00,OVC,,0.00,WeatherDisplay:10.37,2013-03-01 01:05:00,
2013-02-28 19:10:00,27.0,16.4,30.16,North,355,5.8,5.8,64,0.00,OVC,,0.00,WeatherDisplay:10.37,2013-03-01 01:10:00,
2013-02-28 19:15:00,27.0,16.8,30.16,NNW,345,3.5,3.5,65,0.00,OVC,,0.00,WeatherDisplay:10.37,2013-03-01 01:15:00,
2013-02-28 19:20:00,27.0,16.4,30.16,NNW,344,3.5,3.5,64,0.00,OVC,,0.00,WeatherDisplay:10.37,2013-03-01 01:20:00,
2013-02-28 19:25:00,27.0,16.8,30.16,NNW,344,3.0,3.1,65,0.00,OVC,,0.00,WeatherDisplay:10.37,2013-03-01 01:25:00,
2013-02-28 19:30:00,27.0,16.4,30.16,North,5,3.5,3.5,64,0.00,OVC,,0.00,WeatherDisplay:10.37,2013-03-01 01:30:00,
2013-02-28 19:35:00,27.0,16.4,30.16,North,360,4.6,4.6,64,0.00,OVC,,0.00,WeatherDisplay:10.37,2013-03-01 01:35:00,
2013-02-28 19:40:00,27.0,16.4,30.16,NNW,346,5.8,5.8,64,0.00,OVC,,0.00,WeatherDisplay:10.37,2013-03-01 01:40:00,
2013-02-28 19:45:00,27.0,16.8,30.16,North,360,3.5,3.5,65,0.00,OVC,,0.00,WeatherDisplay:10.37,2013-03-01 01:45:00,
2013-02-28 19:50:00,27.0,16.8,30.16,NNE,23,6.9,6.9,65,0.00,OVC,,0.00,WeatherDisplay:10.37,2013-03-01 01:50:00,
2013-02-28 19:55:00,27.0,16.8,30.16,NNW,346,3.0,3.0,65,0.00,OVC,,0.00,WeatherDisplay:10.37,2013-03-01 01:55:00,
2013-02-28 20:00:00,27.0,17.1,30.16,NNW,346,4.0,4.0,66,0.00,OVC,,0.00,WeatherDisplay:10.37,2013-03-01 02:00:00,
2013-02-28 20:05:00,27.0,17.1,30.16,NNW,348,3.5,3.5,66,0.00,OVC,,0.00,WeatherDisplay:10.37,2013-03-01 02:05:00,
2013-02-28 20:10:00,27.0,17.1,30.16,NNW,348,2.3,2.3,66,0.00,OVC,,0.00,WeatherDisplay:10.37,2013-03-01 02:10:00,
2013-02-28 20:15:00,27.0,17.1,30.16,NNW,348,4.6,4.6,66,0.00,OVC,,0.00,WeatherDisplay:10.37,2013-03-01 02:15:00,
2013-02-28 20:20:00,27.0,17.5,30.16,NNW,348,2.3,2.3,67,0.00,OVC,,0.00,WeatherDisplay:10.37,2013-03-01 02:20:00,
2013-02-28 20:25:00,27.0,17.5,30.16,North,350,4.6,4.6,67,0.00,OVC,,0.00,WeatherDisplay:10.37,2013-03-01 02:25:00,
2013-02-28 20:30:00,27.0,17.5,30.16,NNE,24,6.9,6.9,67,0.00,OVC,,0.00,WeatherDisplay:10.37,2013-03-01 02:30:00,
2013-02-28 20:35:00,27.0,17.5,30.16,North,355,6.9,6.9,67,0.00,OVC,,0.00,WeatherDisplay:10.37,2013-03-01 02:35:00,
2013-02-28 20:40:00,27.0,17.5,30.16,NNE,23,6.0,6.0,67,0.00,OVC,,0.00,WeatherDisplay:10.37,2013-03-01 02:40:00,
2013-02-28 20:45:00,27.0,17.5,30.16,North,11,6.0,6.0,67,0.00,OVC,,0.00,WeatherDisplay:10.37,2013-03-01 02:45:00,
2013-02-28 20:50:00,27.0,17.5,30.16,NNE,12,4.0,4.0,67,0.00,OVC,,0.00,WeatherDisplay:10.37,2013-03-01 02:50:00,
2013-02-28 20:55:00,27.0,17.5,30.16,North,349,5.0,5.0,67,0.00,OVC,,0.00,WeatherDisplay:10.37,2013-03-01 02:55:00,
2013-02-28 21:00:00,26.9,17.4,30.16,NNE,17,3.5,3.5,67,0.00,OVC,,0.00,WeatherDisplay:10.37,2013-03-01 03:00:00,
2013-02-28 21:05:00,26.9,17.4,30.16,NNE,17,2.3,2.3,67,0.00,OVC,,0.00,WeatherDisplay:10.37,2013-03-01 03:05:00,
2013-02-28 21:10:00,26.9,17.7,30.16,NNE,17,3.5,3.5,68,0.00,OVC,,0.00,WeatherDisplay:10.37,2013-03-01 03:10:00,
2013-02-28 21:15:00,26.9,17.7,30.17,East,93,5.8,5.8,68,0.00,OVC,,0.00,WeatherDisplay:10.37,2013-03-01 03:15:00,
2013-02-28 21:20:00,26.3,16.5,30.17,NE,38,6.9,6.9,66,0.00,OVC,,0.00,WeatherDisplay:10.37,2013-03-01 03:20:00,
2013-02-28 21:25:00,25.8,16.3,30.17,ENE,65,6.9,6.9,67,0.00,OVC,,0.00,WeatherDisplay:10.37,2013-03-01 03:25:00,
2013-02-28 21:30:00,25.7,16.3,30.17,NE,53,5.8,5.8,67,0.00,OVC,,0.00,WeatherDisplay:10.37,2013-03-01 03:30:00,
2013-02-28 21:35:00,25.6,16.2,30.17,NNW,343,9.2,9.2,67,0.00,OVC,,0.00,WeatherDisplay:10.37,2013-03-01 03:35:00,
2013-02-28 21:40:00,25.4,16.0,30.17,NNE,24,8.0,8.0,67,0.00,OVC,,0.00,WeatherDisplay:10.37,2013-03-01 03:40:00,
2013-02-28 21:45:00,25.3,15.9,30.17,ENE,69,3.5,3.5,67,0.00,OVC,,0.00,WeatherDisplay:10.37,2013-03-01 03:45:00,
2013-02-28 21:50:00,25.3,15.9,30.17,North,5,4.6,4.6,67,0.00,OVC,,0.00,WeatherDisplay:10.37,2013-03-01 03:50:00,
2013-02-28 21:55:00,25.1,15.7,30.17,NE,42,3.5,3.5,67,0.00,OVC,,0.00,WeatherDisplay:10.37,2013-03-01 03:55:00,
2013-02-28 22:00:00,25.0,15.6,30.17,ENE,61,5.8,5.8,67,0.00,OVC,,0.00,WeatherDisplay:10.37,2013-03-01 04:00:00,
2013-02-28 22:05:00,24.8,15.4,30.17,ENE,61,6.9,6.9,67,0.00,OVC,,0.00,WeatherDisplay:10.37,2013-03-01 04:05:00,
2013-02-28 22:10:00,24.8,15.4,30.17,ENE,60,5.8,5.8,67,0.00,OVC,,0.00,WeatherDisplay:10.37,2013-03-01 04:10:00,
2013-02-28 22:15:00,24.7,15.3,30.17,East,85,10.4,10.4,67,0.00,OVC,,0.00,WeatherDisplay:10.37,2013-03-01 04:15:00,
2013-02-28 22:20:00,24.5,15.1,30.17,NE,51,6.0,6.0,67,0.00,OVC,,0.00,WeatherDisplay:10.37,2013-03-01 04:20:00,
2013-02-28 22:25:00,24.5,15.1,30.17,NE,46,3.5,3.5,67,0.00,OVC,,0.00,WeatherDisplay:10.37,2013-03-01 04:25:00,
2013-02-28 22:30:00,24.5,15.1,30.18,ENE,65,5.8,5.8,67,0.00,OVC,,0.00,WeatherDisplay:10.37,2013-03-01 04:30:00,
2013-02-28 22:35:00,24.4,15.0,30.18,North,5,7.0,7.0,67,0.00,OVC,,0.00,WeatherDisplay:10.37,2013-03-01 04:35:00,
2013-02-28 22:40:00,24.4,15.0,30.18,NNE,33,3.5,3.5,67,0.00,OVC,,0.00,WeatherDisplay:10.37,2013-03-01 04:40:00,
2013-02-28 22:45:00,24.2,14.8,30.18,NNE,15,5.8,5.8,67,0.00,OVC,,0.00,WeatherDisplay:10.37,2013-03-01 04:45:00,
2013-02-28 22:50:00,24.2,15.2,30.18,NE,44,6.9,6.9,68,0.00,OVC,,0.00,WeatherDisplay:10.37,2013-03-01 04:50:00,
2013-02-28 22:55:00,24.2,15.2,30.18,North,9,5.8,5.8,68,0.00,OVC,,0.00,WeatherDisplay:10.37,2013-03-01 04:55:00,
2013-02-28 23:00:00,24.1,15.1,30.18,ENE,58,5.8,5.8,68,0.00,OVC,,0.00,WeatherDisplay:10.37,2013-03-01 05:00:00,
2013-02-28 23:05:00,24.1,15.1,30.18,NNE,30,6.9,6.9,68,0.00,OVC,,0.00,WeatherDisplay:10.37,2013-03-01 05:05:00,
2013-02-28 23:06:00,24.1,14.7,30.18,North,9,5.8,5.8,67,0.00,OVC,,0.00,WeatherDisplay:10.37,2013-03-01 05:06:00,
2013-02-28 23:11:00,23.9,14.9,30.18,NNE,21,4.0,4.0,68,0.00,OVC,,0.00,WeatherDisplay:10.37,2013-03-01 05:11:00,
2013-02-28 23:16:00,23.9,14.9,30.18,NE,44,3.5,3.5,68,0.00,OVC,,0.00,WeatherDisplay:10.37,2013-03-01 05:16:00,
2013-02-28 23:21:00,23.9,14.9,30.18,NNE,16,6.9,6.9,68,0.00,OVC,,0.00,WeatherDisplay:10.37,2013-03-01 05:21:00,
2013-02-28 23:26:00,23.9,14.9,30.18,NNE,21,5.0,5.0,68,0.00,OVC,,0.00,WeatherDisplay:10.37,2013-03-01 05:26:00,
2013-02-28 23:31:00,23.8,14.4,30.18,NNE,22,3.5,3.5,67,0.00,OVC,,0.00,WeatherDisplay:10.37,2013-03-01 05:31:00,
2013-02-28 23:36:00,23.8,14.4,30.18,NNE,25,6.9,6.9,67,0.00,OVC,,0.00,WeatherDisplay:10.37,2013-03-01 05:36:00,
2013-02-28 23:41:00,23.8,14.8,30.18,NE,47,4.0,4.2,68,0.00,OVC,,0.00,WeatherDisplay:10.37,2013-03-01 05:41:00,
2013-02-28 23:46:00,23.8,14.8,30.18,NNE,18,4.6,4.6,68,0.00,OVC,,0.00,WeatherDisplay:10.37,2013-03-01 05:46:00,
2013-02-28 23:51:00,23.8,14.8,30.18,NNE,17,9.2,9.2,68,0.00,OVC,,0.00,WeatherDisplay:10.37,2013-03-01 05:51:00,
2013-02-28 23:56:00,23.6,14.6,30.18,NNE,33,8.1,8.1,68,0.00,OVC,,0.00,WeatherDisplay:10.37,2013-03-01 05:56:00,